BEIDOU-3 M14 (C33)

Last updated on Dec. 12, 2019, 4:25 a.m. UTC

1 43623U 18072B   19345.20861436  .00000075  00000-0  00000+0 0  9999
2 43623  55.0789 142.2821 0003224 333.5798 102.7732  1.86231821  8331
UTC
Height (km)
Latitude
Longitude
Inclination
Orbital Period
UTC large
Height (km)
Speed (km/s)
/
Latitude / Longitude
Inclination (degrees)
Orbital Period (minutes)
Azimuth
Elevation
Range (km)
Doppler Factor
iOS Compass Heading
iOS Angle

Next 30 passes for location: Hong Kong

Rise time Rise Azimuth (degrees) Set time Set Azimuth (degrees) Duration Max altitude (degrees)

No matching passes for this satellites